CZ-6A DEB, 54581

Orbit data source: Space-Track

CZ-6A DEB, 54581 is space debris in SSO originally from a launch on Fri, 11 Nov 2022 UTC launched from the Taiyaun Space Center, China (TSC). Debris objects in space refer to the collection of defunct objects orbiting the Earth. Examples of debris include non-operational satellites, rocket bodies, and fragments generated from explosions, collisions, or faulty payload assembly.

Loading next visibility...
Identifier
54581, 2022-151MH
Orbit
SSO
Country
Flag of CNCN / PRC
Related business
Manufacturer
SAST
Mission
Spacecraft
Bus & Motor
Unknown
Mass
Unknown
Launch date (UTC)
2022-11-11 (4 years ago)
Launch vehicle
Unknown
Launch site
Taiyaun Space Center, China (TSC)
Object type
Payload
Rocket body
Debris
Shape & HBR
Unknown shape, 3.0 m
Radar Cross Section
Large (>1 m²)

Expand to show TLE details & history
Last TLE update: 23 hours ago

TLE from 23 hours ago
0 CZ-6A DEB
1 54581U 22151MH  26236.06274994  .00000349  00000-0  11980-3 0  9992
2 54581  98.6040 272.1434 0117212 162.8503 197.6698 14.38537478197670
Epoch: 2026-08-24T01:30Z
TLE epoch observation values (Epoch: 2026-08-24T01:30:21.594Z)
Latitude
0.00005°
Longitude
-82.79642°
Altitude
846.141 km
Speed
7.388 km/s
True Right ascension
18h 08m 34s
True Declination
0° 00' 00"
Sunlit
Object was in full shadow at epoch
Visualization orbit readout
Latitude
Unknown
Longitude
Unknown
Altitude
Unknown
Speed
Unknown
Apparent Right ascension
Unknown
Apparent Declination
Unknown
Sunlit
N/A
Visualization observer readout
Local Sidereal Time
15:55:52
Azimuth
Unknown
Elevation
Unknown
Doppler factor
Unknown
Orbital elements
Apogee altitude
844.136 km
Perigee altitude
676.79 km
Semi-major axis
7,138.6 km
Eccentricity
0.01172
Inclination
98.604°
RAAN
272.1434°
Arg. of periapsis
162.8503°
True anomaly
197.26773°
Mean anomaly
197.6698°
Eccentric anomaly
197.46821°
Mean motion
3.59852 °/min
Orbital period
100.04 mins
BSTAR
0.0001198
Loading maneuver chart data...
Computing Atmospheric mass density...

Documentation

Showing up to 5 results
|